Date,TemperatureHighF,TemperatureAvgF,TemperatureLowF,DewpointHighF,DewpointAvgF,DewpointLowF,HumidityHigh,HumidityAvg,HumidityLow,PressureMaxIn,PressureMinIn,WindSpeedMaxMPH,WindSpeedAvgMPH,GustSpeedMaxMPH,PrecipitationSumIn
2013-1-1,35,27,16,25,16,3,84,63,45,29.85,29.59,7,3,13,0.01
2013-1-2,26,15,5,12,3,-7,79,59,45,30.03,29.82,8,2,12,0.00
2013-1-3,22,10,-1,4,-3,-8,72,56,37,30.06,29.91,3,1,5,0.00
2013-1-4,36,23,6,25,15,-1,89,73,57,29.90,29.70,3,1,5,0.01
2013-1-5,37,29,18,24,18,13,84,66,40,30.18,29.72,6,2,13,0.00
2013-1-6,40,28,18,29,23,14,88,80,61,30.15,29.84,2,0,3,0.01
2013-1-7,35,27,16,26,21,12,91,77,49,30.32,29.87,3,0,6,0.00
2013-1-8,43,28,15,27,22,12,93,78,50,30.28,30.15,4,1,7,0.03
2013-1-9,40,30,20,32,26,18,92,83,67,30.33,29.86,3,0,5,0.06
2013-1-10,43,38,28,30,26,23,83,61,49,30.46,29.89,9,4,19,0.25
2013-1-11,38,30,23,32,26,20,95,83,66,30.45,30.16,2,0,4,0.14
2013-1-12,40,36,33,39,35,32,97,97,95,30.16,30.05,0,0,0,0.19
2013-1-13,43,39,36,43,39,35,98,98,97,30.07,29.89,1,0,1,0.04
2013-1-14,53,44,37,51,40,28,99,86,58,30.15,29.74,5,1,5,0.01
2013-1-15,40,34,29,30,27,23,88,74,56,30.25,30.15,2,0,2,0.00
2013-1-16,32,30,29,30,28,24,95,90,75,30.18,29.73,1,0,2,0.00
2013-1-17,39,30,24,35,24,8,96,79,43,30.04,29.73,5,1,7,0.09
2013-1-18,26,18,13,10,-1,-11,73,45,30,30.36,29.98,8,2,13,0.00
2013-1-19,43,32,15,28,21,7,87,64,45,30.30,29.79,4,1,12,0.12
2013-1-20,50,38,27,32,24,7,86,60,30,29.82,29.41,8,3,13,0.14
2013-1-21,27,24,18,19,7,-2,87,52,35,29.99,29.75,7,2,12,0.00
2013-1-22,24,19,11,18,7,-4,85,61,31,29.98,29.68,6,2,12,0.00
2013-1-23,11,7,2,0,-8,-13,74,50,34,30.07,29.97,5,2,8,0.00
2013-1-24,15,7,0,-6,-12,-17,54,41,28,30.12,29.96,7,3,16,0.00
2013-1-25,20,14,6,4,-5,-8,57,44,30,30.19,29.99,6,2,12,0.00
2013-1-26,23,16,10,10,2,-8,84,57,30,30.12,29.93,7,2,11,0.00
2013-1-27,27,18,12,4,-1,-8,62,44,27,30.38,30.12,6,2,13,0.00
2013-1-28,28,20,11,21,9,-3,91,64,26,30.37,29.97,1,0,3,0.00
2013-1-29,35,29,22,30,25,20,94,86,75,30.13,29.97,2,0,5,0.09
2013-1-30,54,39,32,54,38,31,98,96,94,30.09,29.37,3,1,6,0.28
2013-1-31,60,46,30,57,35,10,98,69,40,29.45,28.81,9,5,17,0.16
2013-2-1,31,27,19,14,9,6,59,46,35,29.99,29.45,7,3,12,0.00
2013-2-2,29,23,15,13,7,3,71,52,34,30.15,29.96,3,1,6,0.00
2013-2-3,28,25,19,20,17,12,90,73,54,29.97,29.63,4,1,5,0.00
2013-2-4,30,24,19,17,8,1,80,53,30,29.82,29.62,7,3,15,0.00
2013-2-5,27,20,11,15,7,2,77,57,39,29.97,29.82,3,0,5,0.00
2013-2-6,37,28,21,25,17,-1,88,67,36,30.23,29.86,4,1,12,0.02
2013-2-7,25,20,14,11,-1,-7,59,39,24,30.47,30.23,4,1,10,0.00
2013-2-8,23,17,15,16,13,8,90,83,55,30.45,29.64,9,5,24,0.00
2013-2-9,23,18,13,21,14,7,92,87,77,30.08,29.55,10,6,19,0.00
2013-2-10,32,17,3,20,10,-2,80,72,54,30.30,30.09,3,1,7,0.06
2013-2-11,33,24,10,32,21,5,97,89,73,30.27,29.52,1,0,2,0.10
2013-2-12,42,36,30,33,30,27,98,82,59,29.75,29.48,4,2,7,0.42
2013-2-13,42,32,23,28,24,20,92,73,48,29.78,29.65,3,1,6,0.04
2013-2-14,41,32,26,25,23,20,87,70,45,29.91,29.62,3,1,7,0.01
2013-2-15,49,33,20,32,26,18,92,78,51,29.91,29.80,2,0,5,0.00
2013-2-16,40,34,28,32,26,17,94,74,50,29.87,29.65,5,1,6,0.02
2013-2-17,31,22,16,18,11,2,88,65,40,29.65,29.25,10,5,19,0.00
2013-2-18,30,21,14,5,1,-3,58,44,24,30.03,29.54,9,5,21,0.00
2013-2-19,41,31,18,38,20,2,96,65,34,30.07,29.48,3,1,6,0.27
2013-2-20,36,32,26,35,22,15,97,68,50,29.66,29.41,6,3,11,0.00
2013-2-21,29,25,20,16,13,9,76,59,46,30.10,29.64,6,3,18,0.00
2013-2-22,39,28,16,25,19,12,88,69,43,30.32,30.10,4,1,8,0.00
2013-2-23,38,33,28,33,29,24,95,86,69,30.27,29.89,3,0,6,0.07
2013-2-24,36,33,30,35,32,28,96,96,95,29.88,29.66,4,1,8,0.19
2013-2-25,39,32,27,33,29,26,95,90,72,30.16,29.83,2,0,5,0.16
2013-2-26,40,33,29,36,31,27,96,92,77,30.28,30.12,4,0,7,0.20
2013-2-27,40,36,31,37,34,30,96,92,77,30.13,29.50,9,4,12,1.10
2013-2-28,45,38,32,36,34,31,96,87,67,29.55,29.45,4,1,7,0.15
2013-3-1,40,36,32,32,30,29,93,80,63,29.61,29.46,4,1,6,0.00
2013-3-2,44,36,30,31,29,27,90,75,53,29.59,29.52,2,1,6,0.00
2013-3-3,40,34,31,33,30,25,93,83,70,29.56,29.47,4,1,7,0.06
2013-3-4,37,33,30,27,24,21,76,70,61,29.65,29.49,7,3,17,0.00
2013-3-5,43,36,29,33,28,22,91,73,58,30.02,29.65,3,1,6,0.00
2013-3-6,38,35,32,34,32,29,94,89,73,30.12,30.02,8,4,11,0.18
2013-3-7,35,32,31,31,28,25,93,83,71,30.09,29.98,8,5,19,0.12
2013-3-8,43,35,29,29,26,21,95,72,46,30.11,29.92,6,4,15,0.20
2013-3-9,45,36,27,29,24,20,92,63,38,30.29,30.11,5,2,11,0.14
2013-3-10,41,32,22,31,27,20,95,83,64,30.35,30.24,4,1,6,0.00
2013-3-11,51,39,30,37,33,28,95,79,47,30.25,30.07,2,0,4,0.00
2013-3-12,49,43,37,46,42,36,97,95,88,30.08,29.64,4,1,7,0.21
2013-3-13,50,42,31,46,34,24,98,76,45,29.69,29.61,4,1,12,0.00
2013-3-14,36,30,22,25,18,4,85,62,44,29.74,29.58,8,2,14,0.00
2013-3-15,40,28,18,29,12,4,92,54,27,29.77,29.54,7,3,11,0.00
2013-3-16,36,31,25,29,17,9,93,58,34,29.81,29.57,3,1,8,0.02
2013-3-17,35,27,21,16,9,1,75,48,27,30.24,29.82,8,2,15,0.00
2013-3-18,37,26,14,24,10,0,73,51,26,30.39,30.19,2,1,4,0.00
2013-3-19,33,31,25,32,29,23,96,93,74,30.19,29.58,9,3,16,0.02
2013-3-20,35,29,24,29,24,21,94,84,68,29.71,29.61,5,1,5,0.03
2013-3-21,39,29,19,26,21,15,91,73,38,29.72,29.53,3,0,5,0.05
2013-3-22,40,32,26,25,21,16,92,65,40,29.62,29.52,5,1,8,0.08
2013-3-23,41,34,25,25,21,18,80,61,39,29.66,29.53,8,3,14,0.13
2013-3-24,46,37,28,31,25,22,87,64,41,29.73,29.64,5,2,9,0.31
2013-3-25,43,35,26,33,28,23,89,78,63,29.70,29.48,7,2,13,0.02
2013-3-26,49,40,29,28,23,17,85,55,29,29.68,29.48,5,2,11,0.00
2013-3-27,53,40,28,35,27,23,89,63,35,29.80,29.65,6,2,16,0.01
2013-3-28,49,41,34,36,33,29,96,74,50,29.92,29.80,3,1,8,0.02
2013-3-29,55,43,32,36,32,29,91,67,39,29.96,29.89,4,1,10,0.00
2013-3-30,55,44,33,32,25,16,84,52,22,30.01,29.91,5,1,9,0.00
2013-3-31,56,42,26,39,26,18,85,57,29,30.05,29.72,4,1,6,0.01
2013-4-1,59,45,34,44,36,14,96,73,39,29.72,29.41,7,2,12,0.41
2013-4-2,40,34,28,17,13,7,57,44,29,29.82,29.68,7,3,24,0.00
2013-4-3,45,36,28,18,12,4,59,38,19,30.03,29.81,7,4,12,0.00
2013-4-4,55,42,27,20,16,9,69,37,17,30.19,29.95,4,1,6,0.00
2013-4-5,52,52,52,18,18,18,26,26,26,29.95,29.95,2,2,2,0.00
2013-4-6,52,41,28,18,11,3,55,30,18,30.25,29.95,8,2,13,0.00
2013-4-7,56,41,24,38,24,13,76,53,26,30.26,29.89,3,1,10,0.00
2013-4-8,63,49,38,41,37,30,94,66,29,30.04,29.85,6,1,8,0.00
2013-4-9,64,51,43,49,42,38,94,74,48,30.02,29.79,7,1,12,0.07
2013-4-10,58,49,44,49,45,40,96,86,69,29.93,29.79,2,0,5,0.46
2013-4-11,49,45,40,45,40,32,96,83,64,30.08,29.78,2,0,6,0.10
2013-4-12,42,37,35,36,31,23,96,81,50,30.15,29.76,6,3,13,0.39
2013-4-13,51,41,34,39,36,32,95,84,59,29.84,29.72,6,1,9,0.07
2013-4-14,53,44,36,39,34,30,95,70,42,30.13,29.84,5,1,13,0.00
2013-4-15,54,42,29,37,33,27,95,73,44,30.32,30.13,4,1,12,0.00
2013-4-16,68,51,33,51,41,31,96,71,40,30.33,29.94,4,2,11,0.00
2013-4-17,65,56,43,52,36,26,84,49,24,30.25,29.93,5,2,12,0.00
2013-4-18,55,47,33,40,33,29,91,61,40,30.38,30.08,5,1,8,0.00
2013-4-19,76,63,50,62,54,40,93,74,51,30.08,29.55,5,2,11,0.00
2013-4-20,67,53,43,63,40,23,94,65,35,30.12,29.50,5,2,8,0.25
2013-4-21,52,42,32,29,24,18,80,50,26,30.61,30.13,4,1,12,0.00
2013-4-22,51,40,30,35,29,20,89,67,31,30.72,30.55,7,2,13,0.00
2013-4-23,41,39,36,40,36,30,96,90,73,30.55,30.10,5,2,11,0.05
2013-4-24,69,52,41,54,46,40,96,80,56,30.09,29.70,3,1,11,0.01
2013-4-25,64,56,43,51,36,26,91,52,25,30.20,29.71,5,2,8,0.01
2013-4-26,58,47,34,39,34,28,87,62,35,30.36,30.20,6,1,10,0.00
2013-4-27,62,50,34,40,35,31,95,63,32,30.36,30.22,5,1,8,0.00
2013-4-28,67,51,36,43,37,30,93,62,28,30.26,30.16,3,1,7,0.00
2013-4-29,68,53,40,49,40,33,92,64,35,30.20,30.11,4,1,6,0.00
2013-4-30,70,54,38,38,32,19,86,49,15,30.31,30.18,3,0,9,0.00
2013-5-1,69,53,35,40,34,27,91,55,22,30.39,30.31,3,0,6,0.00
2013-5-2,75,51,39,47,39,34,90,66,24,30.44,30.30,9,1,19,0.00
2013-5-3,59,49,40,44,40,37,91,72,55,30.47,30.32,6,2,12,0.00
2013-5-4,59,47,38,45,39,34,96,74,45,30.32,30.25,5,1,10,0.00
2013-5-5,60,46,33,41,37,31,96,73,45,30.28,30.19,3,1,4,0.00
2013-5-6,65,48,34,49,42,32,96,81,51,30.23,30.10,5,1,9,0.00
2013-5-7,75,59,42,58,50,41,97,76,41,30.11,30.02,3,0,7,0.00
2013-5-8,72,60,50,61,55,48,96,85,65,30.15,30.01,4,1,8,0.02
2013-5-9,60,57,55,59,56,53,96,96,94,30.01,29.84,2,0,3,0.36
2013-5-10,75,62,54,61,56,52,97,83,50,29.88,29.82,3,0,6,0.01
2013-5-11,69,61,53,63,58,51,97,90,76,29.84,29.62,2,0,3,0.09
2013-5-12,69,60,49,60,52,30,97,76,45,29.70,29.47,3,0,4,0.08
2013-5-13,58,49,42,34,32,27,73,52,32,29.95,29.71,3,1,6,0.00
2013-5-14,59,49,36,36,32,25,88,55,28,29.98,29.87,4,1,7,0.00
2013-5-15,64,50,36,51,40,30,91,70,31,29.98,29.59,4,0,6,0.04
2013-5-16,79,63,45,52,43,36,97,56,22,29.73,29.52,4,1,6,0.00
2013-5-17,67,58,49,45,42,35,82,58,31,30.13,29.73,4,1,11,0.00
2013-5-18,67,54,43,50,45,40,93,75,37,30.23,30.14,6,1,7,0.00
2013-5-19,62,54,51,53,49,48,94,85,67,30.30,30.17,4,1,6,0.02
2013-5-20,76,64,52,64,58,50,97,84,62,30.16,29.84,2,0,8,0.05
2013-5-21,61,56,50,58,53,48,96,90,83,29.99,29.86,5,2,11,0.04
2013-5-22,57,53,50,53,51,49,97,93,81,29.95,29.81,3,1,6,0.82
2013-5-23,69,59,51,67,58,50,97,96,92,29.87,29.72,1,0,2,0.25
2013-5-24,69,63,52,68,61,51,97,93,77,29.76,29.57,3,0,7,0.60
2013-5-25,52,48,39,51,47,38,96,95,92,29.76,29.61,4,2,10,0.47
2013-5-26,56,47,39,43,40,37,97,78,57,29.98,29.59,4,1,12,0.13
2013-5-27,67,55,40,44,39,32,93,61,28,30.11,29.98,3,1,5,0.00
2013-5-28,68,55,41,49,42,35,94,67,31,30.18,30.11,2,0,7,0.00
2013-5-29,61,57,50,60,55,48,96,95,91,30.11,29.93,2,0,3,0.23
2013-5-30,83,69,57,68,62,56,97,81,48,29.98,29.91,1,0,2,0.00
2013-5-31,90,76,64,70,66,62,96,74,40,29.99,29.82,1,0,5,0.00
2013-6-1,90,78,67,71,67,59,93,70,35,29.86,29.73,1,0,2,0.00
2013-6-2,89,77,68,71,67,63,94,75,44,29.76,29.60,3,0,5,0.03
2013-6-3,74,68,60,68,64,50,96,86,57,29.76,29.64,0,0,2,0.13
2013-6-4,67,60,50,50,46,43,84,60,44,30.01,29.72,4,1,16,0.00
2013-6-5,72,60,49,52,47,38,89,65,31,30.10,30.01,3,0,6,0.00
2013-6-6,68,60,54,55,52,49,93,76,52,30.13,30.05,4,1,8,0.00
2013-6-7,58,54,52,54,52,50,96,94,85,30.05,29.80,4,1,7,0.95
2013-6-8,73,62,53,65,57,51,96,87,69,29.91,29.56,4,1,10,0.72
2013-6-9,76,65,55,60,57,54,96,77,48,30.08,29.91,1,0,3,0.00
2013-6-10,66,60,54,58,56,52,95,85,68,30.15,29.97,3,0,4,0.17
2013-6-11,59,56,54,56,54,53,96,94,82,29.97,29.51,5,2,13,0.95
2013-6-12,66,60,55,58,56,54,97,86,69,29.72,29.48,3,1,10,0.07
2013-6-13,65,58,52,59,55,50,96,89,65,29.73,29.65,1,0,2,0.15
2013-6-14,72,60,53,62,56,52,97,86,51,29.68,29.60,3,0,3,0.33
2013-6-15,75,64,54,55,51,39,94,67,28,29.85,29.69,2,0,4,0.00
2013-6-16,72,63,51,62,56,49,94,80,62,29.85,29.62,0,0,3,0.00
2013-6-17,79,66,58,65,61,56,96,84,54,29.82,29.67,4,0,5,0.47
2013-6-18,68,61,58,62,58,56,97,89,71,29.89,29.80,2,0,7,0.01
2013-6-19,72,62,55,57,53,48,96,73,47,30.07,29.85,3,0,5,0.00
2013-6-20,74,62,49,59,53,47,94,74,48,30.19,30.07,2,0,5,0.00
2013-6-21,80,68,58,63,58,51,93,73,37,30.16,30.11,1,0,3,0.00
2013-6-22,81,70,60,70,64,58,95,80,62,30.13,30.01,0,0,2,0.00
2013-6-23,84,73,63,75,68,62,95,83,68,30.06,29.86,5,0,7,0.02
2013-6-24,90,77,70,72,69,66,96,79,49,29.91,29.76,5,0,7,0.07
2013-6-25,86,75,67,74,70,66,96,84,60,29.82,29.62,2,0,2,0.28
2013-6-26,75,69,60,71,68,59,96,94,81,29.79,29.62,3,0,5,0.23
2013-6-27,69,62,59,65,60,58,96,94,85,29.81,29.72,2,0,7,0.38
2013-6-28,75,64,56,73,62,55,97,95,88,29.72,29.41,4,1,11,0.21
2013-6-29,80,72,66,73,69,65,97,88,74,29.61,29.44,1,0,3,0.00
2013-6-30,82,75,67,74,70,66,96,85,70,29.85,29.61,0,0,1,0.00
2013-7-1,79,73,69,73,70,68,96,92,81,29.99,29.84,2,0,2,1.24
2013-7-2,75,66,59,74,65,58,97,96,94,30.16,29.99,4,1,7,0.05
2013-7-3,81,69,59,75,67,58,97,92,81,30.16,30.02,0,0,2,0.01
2013-7-4,88,79,71,77,74,70,96,85,68,30.10,29.98,0,0,2,0.00
2013-7-5,89,81,73,78,74,71,95,82,65,30.06,29.92,1,0,2,0.00
2013-7-6,86,78,73,74,72,68,93,80,59,29.98,29.87,1,0,1,0.00
2013-7-7,85,76,68,75,70,65,92,81,57,29.92,29.82,2,0,5,0.00
2013-7-8,77,72,64,72,68,63,96,88,75,30.00,29.82,6,1,12,0.05
2013-7-9,71,67,64,66,64,62,96,89,80,30.04,29.98,1,0,3,0.00
2013-7-10,76,68,64,72,67,62,96,95,87,30.01,29.71,3,0,5,0.78
2013-7-11,77,73,70,76,72,69,97,96,84,29.86,29.67,1,0,1,0.40
2013-7-12,75,69,63,69,61,57,96,77,54,30.14,29.86,4,1,10,0.11
2013-7-13,76,69,62,66,62,59,95,80,59,30.25,30.14,3,0,5,0.00
2013-7-14,85,74,66,75,70,64,96,86,64,30.22,30.12,1,0,3,0.00
2013-7-15,84,76,69,76,72,67,96,86,63,30.11,29.99,1,0,1,0.00
2013-7-16,89,76,67,75,69,65,93,79,51,30.08,30.02,2,0,5,0.00
2013-7-17,88,77,68,77,72,66,95,83,62,30.09,29.87,3,0,5,0.01
2013-7-18,84,76,71,74,71,68,96,86,60,29.93,29.85,2,0,3,0.10
2013-7-19,90,79,70,78,74,69,97,85,58,29.85,29.59,1,0,6,0.00
2013-7-20,87,79,72,76,70,66,86,75,57,29.70,29.54,1,0,1,0.00
2013-7-21,75,71,66,66,64,57,94,79,57,29.92,29.70,3,0,8,0.00
2013-7-22,76,69,66,69,66,64,95,89,73,29.96,29.83,4,1,7,0.00
2013-7-23,72,69,67,71,67,65,96,95,90,29.83,29.47,2,0,4,1.63
2013-7-24,80,72,64,72,66,52,97,82,62,29.89,29.50,3,0,4,0.00
2013-7-25,65,62,59,59,54,50,96,77,66,30.05,29.89,4,1,6,0.15
2013-7-26,72,65,60,66,63,59,96,92,77,30.00,29.84,3,1,6,0.15
2013-7-27,78,69,60,69,64,58,97,84,61,29.96,29.89,0,0,1,0.00
2013-7-28,72,67,64,67,65,62,96,92,84,29.95,29.92,3,1,7,0.00
2013-7-29,77,69,64,70,66,63,96,91,79,29.98,29.88,3,0,8,0.33
2013-7-30,77,68,60,66,61,55,97,81,47,30.01,29.94,1,0,6,0.01
2013-7-31,76,67,58,64,60,56,96,81,58,30.05,29.96,3,0,8,0.00
2013-8-1,76,67,59,67,62,57,96,85,61,29.97,29.80,3,0,7,0.00
2013-8-2,76,69,64,68,64,61,97,87,62,29.79,29.68,0,0,1,0.40
2013-8-3,75,68,62,66,61,57,94,80,60,29.77,29.67,1,0,3,0.00
2013-8-4,75,66,58,62,57,54,93,75,53,29.79,29.68,2,0,3,0.00
2013-8-5,72,63,55,55,50,42,88,64,35,29.96,29.79,3,0,10,0.00
2013-8-6,73,61,48,56,51,46,93,73,45,30.08,29.97,2,0,8,0.00
2013-8-7,74,64,52,63,57,51,96,80,54,30.12,30.02,2,0,5,0.00
2013-8-8,78,70,62,72,65,56,94,85,76,30.04,29.91,1,0,3,0.01
2013-8-9,72,71,70,71,70,68,97,95,91,29.93,29.63,2,0,6,1.12
2013-8-10,77,70,59,69,63,55,97,80,49,29.93,29.69,1,0,6,0.00
2013-8-11,75,64,54,61,56,52,95,77,50,29.99,29.91,1,0,3,0.00
2013-8-12,76,66,57,63,59,55,94,79,53,29.94,29.83,0,0,1,0.00
2013-8-13,71,67,62,67,64,60,95,92,84,29.84,29.60,0,0,1,0.02
2013-8-14,72,65,59,63,56,52,96,75,51,29.85,29.57,2,0,6,0.00
2013-8-15,72,62,53,59,54,50,92,75,51,30.02,29.85,1,0,3,0.00
2013-8-16,74,63,53,62,56,51,94,79,54,30.10,30.01,0,0,2,0.00
2013-8-17,73,64,54,62,57,53,96,80,58,30.20,30.10,3,0,4,0.00
2013-8-18,76,65,56,68,61,54,96,87,71,30.20,29.99,0,0,2,0.00
2013-8-19,77,68,59,67,62,58,95,83,61,29.99,29.84,1,0,6,0.00
2013-8-20,80,70,62,68,64,60,95,81,53,30.00,29.88,0,0,1,0.00
2013-8-21,82,71,61,70,66,59,96,83,61,30.05,29.92,0,0,1,0.00
2013-8-22,82,73,64,72,67,62,94,82,63,29.93,29.71,0,0,2,0.00
2013-8-23,78,70,61,68,60,52,90,72,43,30.05,29.72,3,0,5,0.00
2013-8-24,73,62,53,54,50,44,89,67,40,30.24,30.06,2,0,6,0.00
2013-8-25,75,62,50,60,55,49,95,77,50,30.29,30.08,1,0,3,0.00
2013-8-26,77,69,62,69,64,57,95,84,72,30.08,29.77,0,0,1,0.02
2013-8-27,80,72,65,68,66,63,95,83,63,29.82,29.75,3,0,9,0.00
2013-8-28,78,68,61,68,64,60,96,87,65,29.92,29.79,3,0,7,0.00
2013-8-29,66,64,62,65,61,59,96,89,81,30.02,29.88,5,1,10,0.04
2013-8-30,78,69,62,69,64,59,93,85,69,29.96,29.71,1,0,3,0.00
2013-8-31,78,73,68,74,70,66,95,90,85,29.75,29.68,0,0,0,0.00
2013-9-1,81,74,70,73,70,68,96,90,69,29.80,29.68,2,0,3,1.22
2013-9-2,72,70,68,71,69,67,97,97,96,29.79,29.64,3,0,4,1.41
2013-9-3,76,70,63,72,68,60,97,93,83,29.70,29.61,0,0,0,0.03
2013-9-4,75,66,59,63,59,57,94,81,58,29.82,29.70,1,0,2,0.00
2013-9-5,66,60,49,60,54,44,94,80,48,30.07,29.77,3,0,7,0.00
2013-9-6,64,54,43,52,46,40,94,75,46,30.16,30.00,1,0,1,0.00
2013-9-7,72,60,49,63,54,46,93,81,57,29.99,29.75,0,0,2,0.01
2013-9-8,68,61,49,60,51,42,88,71,46,30.00,29.65,4,1,7,0.00
2013-9-9,65,54,42,54,47,40,94,79,52,30.15,30.00,0,0,1,0.00
2013-9-10,70,63,54,69,61,51,97,93,88,30.07,29.94,0,0,1,0.07
2013-9-11,85,75,68,77,72,67,97,89,71,29.96,29.82,2,0,3,0.02
2013-9-12,77,70,66,74,69,65,97,95,85,29.86,29.60,2,0,1,1.84
2013-9-13,71,65,57,68,64,56,97,96,90,29.67,29.49,4,0,5,1.49
2013-9-14,65,58,51,60,55,49,97,90,73,29.97,29.67,1,0,5,0.09
2013-9-15,65,56,48,57,52,46,97,86,58,30.07,29.96,0,0,1,0.00
2013-9-16,63,56,47,57,51,38,96,83,65,30.19,29.91,3,0,4,0.01
2013-9-17,60,50,39,51,42,37,92,75,49,30.35,30.19,3,0,7,0.00
2013-9-18,67,54,43,56,48,42,96,82,49,30.24,30.05,0,0,0,0.00
2013-9-19,69,58,48,59,52,46,96,82,51,30.06,29.95,2,0,3,0.00
2013-9-20,70,58,48,58,53,46,97,85,58,30.02,29.93,4,0,5,0.00
2013-9-21,70,61,50,64,58,49,97,90,78,29.95,29.65,1,0,5,0.00
2013-9-22,66,62,53,65,58,45,97,85,63,29.73,29.50,2,0,5,0.36
2013-9-23,58,51,44,46,43,40,88,72,56,29.91,29.74,4,1,8,0.00
2013-9-24,61,49,40,49,43,38,96,80,52,29.90,29.75,3,0,10,0.00
2013-9-25,60,52,43,52,48,41,96,85,66,29.92,29.80,2,0,5,0.00
2013-9-26,63,55,47,53,49,45,93,80,60,30.07,29.92,2,0,5,0.00
2013-9-27,64,58,51,57,52,50,94,83,67,30.18,30.06,2,0,4,0.00
2013-9-28,68,56,46,57,51,45,97,85,58,30.26,30.18,4,0,6,0.00
2013-9-29,62,52,45,54,49,44,98,88,59,30.20,30.06,2,0,3,0.00
2013-9-30,62,51,44,53,48,42,97,89,67,30.07,29.90,3,0,3,0.00
2013-10-1,71,56,43,59,51,42,97,85,54,29.90,29.76,1,0,5,0.00
2013-10-2,75,62,54,62,57,52,97,85,59,29.85,29.73,1,0,2,0.00
2013-10-3,72,60,53,58,54,47,95,81,43,30.00,29.86,1,0,3,0.00
2013-10-4,64,58,50,59,54,48,96,90,74,30.02,29.96,0,0,0,0.00
2013-10-5,63,59,56,57,54,50,95,84,69,30.06,29.98,2,0,5,0.00
2013-10-6,57,54,50,55,52,47,97,90,72,30.19,30.05,4,1,8,0.15
2013-10-7,71,63,55,68,62,55,98,95,86,30.09,29.71,2,0,3,0.21
2013-10-8,62,54,44,57,46,40,96,78,47,30.32,29.80,3,0,4,0.00
2013-10-9,58,47,38,47,42,37,96,85,58,30.42,30.31,2,0,6,0.00
2013-10-10,58,48,38,52,45,37,97,90,70,30.31,30.13,1,0,2,0.00
2013-10-11,65,53,44,54,49,43,97,86,56,30.12,30.04,2,0,4,0.00
2013-10-12,56,52,47,54,50,45,98,93,85,30.34,30.09,4,1,10,0.00
2013-10-13,58,48,41,50,44,39,97,87,62,30.39,30.33,3,0,6,0.00
2013-10-14,60,48,35,50,43,33,98,85,55,30.34,30.17,1,0,1,0.00
2013-10-15,62,56,52,54,52,50,95,87,72,30.20,30.12,3,0,6,0.00
2013-10-16,59,55,53,54,52,50,97,90,71,30.12,29.84,2,0,4,0.00
2013-10-17,70,59,52,59,54,49,97,84,56,29.84,29.63,0,0,2,0.00
2013-10-18,65,58,49,60,50,39,97,77,51,29.81,29.51,4,1,6,0.04
2013-10-19,65,52,41,49,44,38,92,73,47,29.89,29.68,1,0,2,0.00
2013-10-20,60,52,43,49,41,34,94,67,41,29.92,29.61,4,1,9,0.00
2013-10-21,63,49,37,48,41,34,94,76,45,30.03,29.91,1,0,3,0.00
2013-10-22,62,51,41,53,46,38,97,82,65,29.91,29.62,2,0,2,0.00
2013-10-23,52,44,35,39,36,32,95,76,51,29.71,29.51,0,0,1,0.00
2013-10-24,53,45,37,37,32,28,88,64,41,29.79,29.55,4,1,7,0.00
2013-10-25,48,39,32,35,30,26,94,71,45,30.06,29.79,4,1,11,0.00
2013-10-26,53,41,28,36,30,25,95,68,37,30.07,29.80,2,0,6,0.00
2013-10-27,54,46,36,41,36,29,92,69,45,29.97,29.73,4,1,5,0.03
2013-10-28,57,42,33,36,32,25,91,67,44,30.28,29.96,5,1,7,0.00
2013-10-29,47,34,25,29,24,18,91,70,32,30.39,30.28,2,0,5,0.00
2013-10-30,48,36,28,37,31,26,93,83,63,30.30,30.13,2,0,4,0.01
2013-10-31,58,41,30,57,40,28,98,93,85,30.17,29.71,2,0,10,0.09
2013-11-1,70,63,55,62,57,51,97,81,61,29.71,29.32,6,2,10,0.01
2013-11-2,64,53,42,51,45,40,96,78,43,29.64,29.52,2,0,5,0.01
2013-11-3,49,41,29,47,32,20,92,70,43,30.35,29.65,4,1,7,0.02
2013-11-4,41,31,25,22,19,15,81,64,35,30.64,30.36,4,0,7,0.00
2013-11-5,49,35,24,34,27,20,92,75,46,30.65,30.44,2,0,3,0.00
2013-11-6,59,48,33,48,40,31,92,76,55,30.44,29.93,3,0,7,0.00
2013-11-7,62,53,38,57,48,33,95,85,71,29.93,29.59,5,1,10,0.11
2013-11-8,45,38,32,36,29,25,88,71,51,29.98,29.72,5,1,5,0.02
2013-11-9,43,38,30,30,26,22,75,62,46,30.12,29.97,5,1,10,0.01
2013-11-10,48,42,37,43,37,29,97,84,73,29.96,29.65,2,0,3,0.06
2013-11-11,49,43,39,34,30,25,79,60,40,30.00,29.74,6,2,12,0.00
2013-11-12,46,35,28,35,22,15,84,60,53,30.09,29.79,6,2,21,0.01
2013-11-13,34,28,24,17,15,12,69,58,40,30.20,30.06,4,1,7,0.00
2013-11-14,49,36,28,30,24,15,84,61,43,30.06,29.93,5,1,11,0.00
2013-11-15,56,38,26,28,24,20,88,63,27,30.11,30.02,1,0,2,0.00
2013-11-16,54,39,30,36,29,24,91,70,32,30.25,30.10,2,0,3,0.00
2013-11-17,52,42,31,51,40,28,97,96,91,30.27,29.81,1,0,5,0.07
2013-11-18,62,55,46,60,48,34,98,80,52,29.79,29.42,4,1,10,0.10
2013-11-19,47,38,31,33,22,17,66,54,41,30.19,29.55,7,4,13,0.00
2013-11-20,40,32,23,18,16,12,75,54,33,30.55,30.19,5,2,13,0.00
2013-11-21,45,30,20,26,18,10,85,64,25,30.57,30.29,2,0,5,0.00
2013-11-22,41,38,32,40,35,26,97,92,77,30.28,29.73,1,0,2,0.09
2013-11-23,42,37,29,40,27,15,97,68,40,29.82,29.68,8,3,16,0.01
2013-11-24,30,23,19,21,5,-3,77,47,32,30.08,29.68,10,6,28,0.00
2013-11-25,30,23,18,14,0,-8,58,37,20,30.26,30.09,6,2,13,0.00
2013-11-26,36,32,29,31,24,13,95,72,51,30.25,30.02,1,0,7,0.07
2013-11-27,60,48,33,60,46,31,98,95,81,30.01,29.12,5,2,13,1.11
2013-11-28,36,30,22,31,17,7,81,59,37,30.35,29.32,6,3,16,0.00
2013-11-29,30,23,16,13,9,3,80,56,33,30.68,30.35,4,1,12,0.00
2013-11-30,32,22,11,22,14,7,87,73,56,30.75,30.36,2,0,6,0.00
2013-12-1,36,33,28,35,30,22,97,89,77,30.35,29.95,1,0,6,0.17
2013-12-2,39,36,35,37,35,34,97,96,94,29.95,29.85,2,0,5,0.01
2013-12-3,44,36,29,38,34,28,96,91,74,29.86,29.77,2,0,8,0.00
2013-12-4,39,32,27,31,27,25,95,83,63,30.13,29.85,3,0,4,0.00
2013-12-5,39,35,27,38,33,25,97,93,87,30.16,29.84,1,0,2,0.03
2013-12-6,47,42,34,46,39,32,98,91,72,30.08,29.78,3,1,4,0.09
2013-12-7,38,32,24,34,26,18,96,80,52,30.36,30.01,6,1,9,0.10
2013-12-8,30,26,20,21,17,13,88,71,50,30.52,30.37,3,0,3,0.00
2013-12-9,36,31,26,35,28,16,96,90,62,30.43,29.80,4,1,7,0.07
2013-12-10,33,30,23,32,28,16,97,91,73,29.87,29.69,3,1,5,0.03
2013-12-11,32,24,19,19,17,15,87,72,51,30.10,29.88,4,2,7,0.00
2013-12-12,24,18,12,18,7,-2,84,64,36,30.18,29.97,6,1,17,0.00
2013-12-13,26,18,11,18,9,-2,78,67,51,30.35,29.89,4,1,7,0.00
2013-12-14,16,12,8,12,2,-4,88,66,48,30.57,30.19,4,2,7,0.00
2013-12-15,25,18,14,23,16,11,92,90,88,30.16,29.36,6,2,13,0.00
2013-12-16,26,19,10,16,10,1,92,69,38,30.13,29.64,5,2,8,0.00
2013-12-17,16,9,-3,12,3,-8,88,77,60,30.22,29.91,4,1,7,0.00
2013-12-18,32,23,14,21,17,10,90,79,60,29.97,29.79,5,1,7,0.00
2013-12-19,38,29,21,26,23,18,90,76,56,30.02,29.86,3,1,6,0.00
2013-12-20,43,34,28,33,29,24,93,83,65,30.04,29.83,2,0,2,0.27
2013-12-21,48,38,32,41,35,30,96,90,73,29.87,29.77,1,0,2,0.39
2013-12-22,38,33,30,37,32,29,96,96,95,29.99,29.80,3,1,7,0.21
2013-12-23,33,31,29,32,31,28,97,97,96,30.06,29.92,2,0,4,0.25
2013-12-24,33,30,24,32,22,11,97,74,53,30.13,29.99,4,1,6,0.00
2013-12-25,24,16,10,13,4,-2,76,60,45,30.49,30.14,5,2,9,0.00
2013-12-26,26,19,14,24,16,8,92,86,76,30.45,30.01,1,0,2,0.00
2013-12-27,32,20,10,23,15,7,94,82,64,30.17,30.10,2,0,4,0.00
2013-12-28,40,30,16,30,24,13,92,80,62,30.12,29.87,3,1,3,0.16
2013-12-29,36,32,26,34,29,24,96,90,78,29.94,29.39,4,1,6,0.72
2013-12-30,39,30,14,35,23,0,97,77,50,30.11,29.42,5,2,11,0.00
2013-12-31,20,13,7,7,1,-3,85,61,37,30.11,29.95,3,0,4,0.00
2014-1-1,24,17,11,10,7,5,85,66,45,30.31,30.07,5,1,8,0.00
2014-1-2,16,7,-2,11,2,-7,85,79,68,30.31,29.86,7,4,17,0.00